This demonstration page uses our WeatherBlox Daily Observations layout. Learn more.

Left ArrowRight Arrow

Hourly Observations for August 5, 2019

Temp ( °F °C ) Dew Point ( °F °C ) Humidity (%) Winds ( mph kmh ) Pressure ( in mb ) Visibility ( mi km ) Precip ( " mm )
12:53 am 00:53 Clear 80 26.7 52 11.1 38 38 E 7 11 29.86 1011 10 16 0.00 0.00
1:53 am 01:53 Clear 79 26.1 52 11.1 39 39 E 8 13 29.87 1012 10 16 0.00 0.00
2:53 am 02:53 Clear 79 26.1 54 12.2 42 42 E 8 13 29.87 1012 10 16 0.00 0.00
3:53 am 03:53 Clear 78 25.6 57 13.9 48 48 E 10 17 29.86 1011 10 16 0.00 0.00
4:53 am 04:53 Clear 77 25 60 15.6 56 56 SE 8 13 29.87 1012 10 16 0.00 0.00
5:53 am 05:53 Clear 74 23.3 60 15.6 62 62 ESE 6 9 29.87 1012 10 16 0.00 0.00
6:53 am 06:53 Clear 72 22.2 61 16.1 68 68 ENE 6 9 29.88 1012 10 16 0.00 0.00
7:53 am 07:53 Sunny 74 23.3 62 16.7 67 67 Calm 29.90 1012 10 16 0.00 0.00
8:53 am 08:53 Sunny 79 26.1 62 16.7 56 56 SE 6 9 29.91 1013 10 16 0.00 0.00
9:53 am 09:53 Sunny 85 29.4 62 16.7 46 46 Calm 29.91 1013 10 16 0.00 0.00
10:53 am 10:53 Sunny 89 31.7 60 15.6 38 38 Calm 29.91 1013 10 16 0.00 0.00
11:53 am 11:53 Sunny 91 32.8 58 14.4 33 33 ESE 7 11 29.91 1013 10 16 0.00 0.00
12:53 pm 12:53 Sunny 93 33.9 56 13.3 29 29 ESE 3 6 29.89 1012 10 16 0.00 0.00
1:53 pm 13:53 Sunny 96 35.6 53 11.7 23 23 VRB 3 6 29.86 1011 10 16 0.00 0.00
2:53 pm 14:53 Sunny 99 37.2 52 11.1 21 21 ENE 9 15 29.84 1011 10 16 0.00 0.00
3:53 pm 15:53 Partly Cloudy 99 37.2 51 10.6 20 20 Calm 29.82 1010 10 16 0.00 0.00
4:53 pm 16:53 Mostly Sunny 100 37.8 48 8.9 17 17 E 14 22 29.80 1009 10 16 0.00 0.00
5:53 pm 17:53 Sunny 101 38.3 45 7.2 15 15 N 5 7 29.78 1009 10 16 0.00 0.00
6:53 pm 18:53 Sunny 100 37.8 48 8.9 17 17 E 9 15 29.78 1008 10 16 0.00 0.00
7:53 pm 19:53 Sunny 98 36.7 47 8.3 17 17 E 8 13 29.78 1008 10 16 0.00 0.00
8:53 pm 20:53 Clear 94 34.4 46 7.8 19 19 E 9 15 29.79 1009 10 16 0.00 0.00
9:53 pm 21:53 Clear 89 31.7 47 8.3 23 23 E 8 13 29.79 1009 10 16 0.00 0.00
10:53 pm 22:53 Clear 87 30.6 48 8.9 26 26 E 8 13 29.81 1009 10 16 0.00 0.00
11:53 pm 23:53 Clear 85 29.4 49 9.4 29 29 E 10 17 29.81 1009 10 16 0.00 0.00

Powered by AerisWeather